User: anonymous   Login
Location: Unspecified
(0.0000°N, 0.0000°E)
Time: 23:04:24
(UTC+00:00)
Language:

Sapphire - Orbit

View from above orbital plane
View from above orbital plane
View from above satellite
View from above satellite

Ground track
Ground track

The orbit data is extracted from the following two-line orbital elements,

1 26932U 01043D   18343.96643402 -.00000079  00000-0  14994-5 0  9992
2 26932  67.0547 138.9572 0007752 252.9107 107.1145 14.30294483897703
Epoch (UTC): 09 December 2018 23:11:39
Eccentricity: 0.0007752
inclination: 67.0547°
perigee height: 785 km
apogee height: 796 km
right ascension of ascending node: 138.9572°
argument of perigee: 252.9107°
revolutions per day: 14.30294483
mean anomaly at epoch: 107.1145°
orbit number at epoch: 89770

The dashed part of the orbit path shows where the satellite is in the earth's shadow,  

DLR